Location: The Saddle
(36.8333°N, 80.3417°W)
Time: 17:49:13
(UTC-04:00)

Vanguard 1 - Visible Passes

Search period start: 07 October 2024 00:00
Search period end: 17 October 2024 00:00
Orbit: 649 x 3825 km, 34.3° (Epoch: 07 October)

Date Brightness Start Highest point End Pass type
(mag) Time Alt. Az. Time Alt. Az. Time Alt. Az.
07 Oct 13.7 04:07:20 10° S 04:21:09 25° SE 04:37:21 10° E visible
07 Oct 13.5 06:24:16 10° SW 06:44:47 57° SSE 07:06:04 10° ENE visible
08 Oct 13.6 04:24:55 10° S 04:40:23 32° SE 04:58:59 10° E visible
08 Oct 13.4 06:43:36 10° SW 07:04:42 64° SSE 07:26:16 10° E visible
09 Oct 13.5 04:44:00 12° SSW 04:59:42 40° SE 05:20:01 10° E visible
10 Oct 13.7 02:50:32 12° SSE 02:57:20 15° SE 03:07:26 10° E visible
10 Oct 13.3 05:03:11 14° SSW 05:19:09 48° SE 05:40:40 10° ENE visible
11 Oct 13.5 03:09:40 18° SSE 03:16:18 22° SE 03:30:45 10° E visible
11 Oct 13.2 05:22:19 15° SW 05:38:46 56° SSE 06:01:07 10° ENE visible
12 Oct 13.2 03:28:44 24° SSE 03:35:19 29° SE 03:52:38 10° E visible
12 Oct 13.1 05:41:22 14° SW 05:58:33 64° SSE 06:21:27 10° ENE visible
13 Oct 13.0 03:47:43 29° S 03:54:27 37° SE 04:13:50 10° ENE visible
13 Oct 13.0 06:00:22 13° SW 06:18:31 70° SSE 06:41:41 10° E visible
14 Oct 13.8 01:54:01 12° ESE 01:54:01 12° ESE 01:58:57 10° ESE visible
14 Oct 12.8 04:06:39 34° S 04:13:43 45° SE 04:34:38 10° ENE visible
14 Oct 13.0 06:19:17 11° WSW 06:38:38 76° SSE 07:01:54 10° E visible
15 Oct 13.5 02:12:55 19° ESE 02:12:55 19° ESE 02:23:22 10° E visible
15 Oct 12.7 04:25:32 37° SSW 04:33:09 54° SE 04:55:12 10° ENE visible
15 Oct 13.1 06:38:49 10° WSW 06:58:53 80° S 07:22:06 10° E visible
16 Oct 13.3 02:31:44 26° SE 02:31:44 26° SE 02:45:35 10° E visible
16 Oct 12.6 04:44:20 38° SSW 04:52:47 62° SSE 05:15:37 10° ENE visible
16 Oct 13.1 06:58:42 10° WSW 07:19:12 83° S 07:42:16 10° E visible
